Location: Newark
(43.0000°N, 1.6781°W)
Time: 00:18:43
(UTC+00:00)

N. Korean satellite - Pass Details

Date: 10 December 2021
Orbit: 447 x 491 km, 97.3° (Epoch: 21 January)

Event Time Altitude Azimuth Distance (km) Brightness Sun altitude
Rises 17:14:27 0° 195° (SSW) 2,507 10.8 -7.7°
Reaches altitude 10° 17:16:49 10° 211° (SSW) 1,626 10.1 -8.1°
Maximum altitude 17:19:38 23° 265° (W) 1,046 9.3 -8.6°
Drops below altitude 10° 17:22:26 10° 319° (NW) 1,616 9.5 -9.0°
Sets 17:24:47 0° 334° (NNW) 2,487 10.2 -9.4°
